Location: Unspecified
(0.0000°N, 0.0000°E)
Time: 18:20:12
(UTC+00:00)

A-11 Canister half - All Passes

Search period start: 18 April 2019 00:00
Search period end: 28 April 2019 00:00
Orbit: 1517 x 1683 km, 47.2° (Epoch: 17 April)

Date Brightness Start Highest point End Pass type
(mag) Time Alt. Az. Time Alt. Az. Time Alt. Az.
18 Apr - 00:03:50 10° SSW 00:12:07 36° SE 00:20:24 10° ENE night (unlit)
18 Apr - 02:08:04 10° WSW 02:16:46 46° NW 02:25:39 10° NNE visible
18 Apr - 10:52:23 10° NNE 10:57:53 16° NE 11:03:22 10° E daylight
18 Apr - 12:53:05 10° NW 13:03:16 80° NE 13:13:19 10° SE daylight
18 Apr - 15:01:06 10° W 15:08:18 22° SW 15:15:28 10° S daylight
18 Apr - 23:41:08 10° SSW 23:49:12 33° SE 23:57:15 10° ENE night (unlit)
19 Apr - 01:45:02 10° WSW 01:53:52 50° NW 02:02:52 10° NNE visible
19 Apr - 10:30:08 10° NNE 10:34:52 14° NE 10:39:35 10° ENE daylight
19 Apr - 12:30:11 10° NNW 12:40:19 74° NE 12:50:22 10° SE daylight
19 Apr - 14:37:42 10° W 14:45:20 24° SW 14:52:55 10° S daylight
19 Apr - 23:18:29 10° S 23:26:17 30° SE 23:34:04 10° ENE night (unlit)
20 Apr - 01:22:01 10° SW 01:30:58 55° NW 01:40:03 10° NNE visible
20 Apr - 10:08:04 10° NNE 10:11:49 12° NE 10:15:35 10° ENE daylight
20 Apr - 12:07:17 10° NNW 12:17:22 68° NE 12:27:23 10° SE daylight
20 Apr - 14:14:21 10° WNW 14:22:22 27° SW 14:30:18 10° S daylight
20 Apr - 22:55:50 10° S 23:03:22 28° SE 23:10:51 10° ENE night (unlit)
21 Apr - 00:59:01 10° SW 01:08:04 60° NW 01:17:15 10° NNE visible
21 Apr - 09:46:26 10° NNE 09:48:47 11° NE 09:51:07 10° ENE daylight
21 Apr - 11:44:26 10° NNW 11:54:26 63° NE 12:04:23 10° SE daylight
21 Apr - 13:51:02 10° WNW 13:59:23 29° SW 14:07:40 10° S daylight
21 Apr - 22:33:13 10° S 22:40:26 25° SE 22:47:36 10° E night (unlit)
22 Apr - 00:36:04 10° SW 00:45:11 65° NW 00:54:25 10° NNE visible
22 Apr - 02:49:22 10° NW 02:50:36 10° NW 02:51:52 10° NW visible
22 Apr - 11:21:36 10° NNW 11:31:30 58° NE 11:41:22 10° SE daylight
22 Apr - 13:27:47 10° WNW 13:36:25 32° SW 13:45:01 10° S daylight
22 Apr - 22:10:38 10° S 22:17:30 23° SE 22:24:18 10° E night (unlit)
23 Apr - 00:13:06 10° SW 00:22:17 71° NW 00:31:34 10° NNE night (unlit)
23 Apr - 02:24:35 10° WNW 02:27:35 12° NW 02:30:37 10° NNW visible
23 Apr - 10:58:45 10° NNW 11:08:33 53° NE 11:18:18 10° SE daylight
23 Apr - 13:04:33 10° WNW 13:13:27 35° SW 13:22:18 10° SSE daylight
23 Apr - 21:48:06 10° S 21:54:33 21° SE 22:00:57 10° E night (unlit)
23 Apr - 23:50:09 10° SW 23:59:24 77° NW 00:08:43 10° NE night (unlit)
24 Apr - 02:00:35 10° WNW 02:04:36 13° NW 02:08:38 10° NNW visible
24 Apr - 10:35:57 10° NNW 10:45:36 49° NE 10:55:14 10° ESE daylight
24 Apr - 12:41:22 10° WNW 12:50:29 38° SW 12:59:35 10° SSE daylight
24 Apr - 21:25:36 10° S 21:31:36 19° SE 21:37:31 10° E night (unlit)
24 Apr - 23:27:14 10° SW 23:36:32 84° NW 23:45:50 10° NE night (unlit)
25 Apr - 01:36:51 10° WNW 01:41:36 15° NW 01:46:26 10° NNW visible
25 Apr - 10:13:10 10° NNW 10:22:39 45° NE 10:32:08 10° ESE daylight
25 Apr - 12:18:12 10° WNW 12:27:32 42° SW 12:36:50 10° SSE daylight
25 Apr - 21:03:10 10° S 21:08:38 17° SE 21:14:02 10° E night (unlit)
25 Apr - 23:04:20 10° SW 23:13:39 90° ENE 23:22:56 10° NE night (unlit)
26 Apr - 01:13:15 10° W 01:18:38 17° NW 01:24:05 10° N visible
26 Apr - 09:50:24 10° NNW 09:59:42 41° NE 10:09:01 10° ESE daylight
26 Apr - 11:55:05 10° WNW 12:04:35 45° SW 12:14:05 10° SSE daylight
26 Apr - 20:40:50 10° SSE 20:45:40 15° SE 20:50:26 10° ESE visible
26 Apr - 22:41:26 10° SW 22:50:46 83° SE 23:00:02 10° NE night (unlit)
27 Apr - 00:49:46 10° W 00:55:40 19° NW 01:01:40 10° N visible
27 Apr - 09:27:40 10° NNW 09:36:45 38° NE 09:45:51 10° ESE daylight
27 Apr - 11:31:59 10° WNW 11:41:38 49° SW 11:51:18 10° SSE daylight
27 Apr - 20:18:37 10° SSE 20:22:41 13° SE 20:26:41 10° ESE visible
27 Apr - 22:18:34 10° SW 22:27:52 77° SE 22:37:07 10° NE night (unlit)
